[[{"header":{"parameterUnit":"m.s-1","parameterCategory":1,"la1":30.2992,"la2":30.254,"lo1":-89.0895,"lo2":-89.0443,"dy":0.0025,"dx":0.0025,"nx":19,"ny":19,"refTime":"2026-03-26T21:00:00:Z","depth":0,"parameterNumber":2,"parameterNumberName":"U-component_of_WINDS"},"data":[0,0,0,-1.1751,-1.1753,-1.1827,-1.1827,-1.192,-1.1921,0,0,0,0,0,0,0,0,0,0,0,-1.1726,-1.1726,-1.1751,-1.1753,-1.1827,-1.1827,-1.192,-1.1921,0,0,0,0,0,0,0,0,0,0,0,-1.1725,-1.1726,-1.1727,-1.1753,-1.1827,-1.1827,-1.192,-1.1865,0,0,0,0,0,0,0,0,0,0,-1.1794,-1.1766,-1.1726,-1.1727,-1.1754,-1.1827,-1.1827,-1.1862,-1.1868,-1.1885,0,-1.1896,0,-1.191,-1.1927,-1.1927,0,0,0,-1.1756,-1.1761,-1.1784,-1.1727,-1.1754,-1.1826,-1.1794,-1.1866,-1.1873,-1.1893,-1.1897,-1.1901,-1.1911,-1.1927,-1.1928,-1.2006,-1.2006,0,0,-1.1752,-1.1737,-1.1779,-1.1788,-1.1774,-1.1792,-1.1797,-1.187,-1.1875,-1.1898,-1.1903,-1.1913,-1.1928,-1.1928,-1.2006,-1.2006,0,0,0,-1.1738,-1.1734,-1.1756,-1.1784,-1.1797,-1.1794,-1.1799,-1.1872,-1.188,-1.1904,-1.1914,-1.1928,-1.1929,-1.2006,-1.2006,-1.2001,0,0,0,-1.1736,-1.1726,-1.1754,-1.1746,-1.1796,-1.1835,-1.1799,-1.1875,-1.1884,-1.1913,-1.1928,-1.193,-1.2006,-1.2006,-1.2001,-1.2001,0,0,0,-1.1722,-1.1725,-1.1734,-1.1745,-1.1776,-1.1834,-1.1847,-1.1877,-1.1889,-1.1927,-1.193,-1.2005,-1.2006,-1.2,-1.2001,-1.2018,0,0,0,-1.1704,-1.1729,-1.1733,-1.1766,-1.1775,-1.183,-1.1846,-1.1888,-1.192,-1.1929,-1.2006,-1.2006,-1.2,-1.2,-1.2017,-1.2029,-1.2032,0,0,-1.1727,-1.1731,-1.1751,-1.1758,-1.1807,-1.182,-1.1871,-1.1914,-1.1933,-1.1981,-1.1984,-1.2001,-1.2001,-1.2018,-1.2057,-1.206,0,0,0,-1.1754,-1.1768,-1.1784,-1.1813,-1.1846,-1.1876,-1.1914,-1.1931,-1.1973,-1.1954,-1.2012,-1.2013,-1.2023,-1.203,-1.2032,-1.2043,-1.2008,-1.2008,-1.2008,-1.1765,-1.1786,-1.1822,-1.1852,-1.188,-1.192,-1.1945,-1.1975,-1.1989,-1.2003,-1.2017,-1.2038,-1.2045,-1.2046,-1.2057,-1.2025,-1.2025,-1.2025,-1.2025,-1.1801,-1.1825,-1.1843,-1.1884,-1.1908,-1.1943,-1.1984,-1.1993,-1.2031,-1.2029,-1.2039,-1.2034,-1.2048,-1.2059,-1.2025,-1.2025,-1.2025,-1.2025,-1.2025,-1.181,-1.1826,-1.1845,-1.189,-1.1923,-1.1955,-1.199,-1.2011,-1.2031,-1.2042,-1.206,-1.206,-1.2063,-1.2049,-1.2049,-1.2049,-1.2049,-1.2049,-1.2049,-1.1812,-1.1834,-1.186,-1.1899,-1.1921,-1.1954,-1.1995,-1.2019,-1.205,-1.2063,-1.2063,-1.2077,-1.2046,-1.2037,-1.2051,-1.205,-1.205,-1.205,-1.205,-1.184,-1.1838,-1.1878,-1.19,-1.1949,-1.1981,-1.2008,-1.2054,-1.2077,-1.2094,-1.2106,-1.208,-1.2086,-1.2084,-1.2077,-1.2101,-1.2101,-1.2101,-1.2101,-1.1848,-1.1853,-1.19,-1.1934,-1.1971,-1.1999,-1.2048,-1.2082,-1.2117,-1.2133,-1.2133,-1.2126,-1.2124,-1.2131,-1.2129,-1.2123,-1.2157,-1.2157,-1.2157,-1.1867,-1.1877,-1.1912,-1.1944,-1.1985,-1.202,-1.2066,-1.2108,-1.2147,-1.216,-1.2146,-1.2144,-1.2133,-1.2128,-1.2139,-1.2134,-1.2124,0,0]},{"header":{"parameterUnit":"m.s-1","parameterCategory":1,"la1":30.2992,"la2":30.254,"lo1":-89.0895,"lo2":-89.0443,"dy":0.0025,"dx":0.0025,"nx":19,"ny":19,"refTime":"2026-03-26T21:00:00:Z","depth":0,"parameterNumber":3,"parameterNumberName":"V-component_of_WINDS"},"data":[0,0,0,4.3706,4.3707,4.3708,4.3707,4.372,4.3721,0,0,0,0,0,0,0,0,0,0,0,4.3713,4.3714,4.3706,4.3707,4.3708,4.3707,4.372,4.3721,0,0,0,0,0,0,0,0,0,0,0,4.3713,4.3713,4.3714,4.3707,4.3708,4.3707,4.372,4.3715,0,0,0,0,0,0,0,0,0,0,4.3713,4.3726,4.3713,4.3714,4.3707,4.3708,4.3707,4.3715,4.3716,4.3725,0,4.3735,0,4.3728,4.3722,4.3722,0,0,0,4.3701,4.3725,4.3719,4.3714,4.3707,4.3708,4.3706,4.3715,4.3716,4.3726,4.3735,4.3736,4.3729,4.3722,4.3723,4.3796,4.3797,0,0,4.3701,4.3717,4.3719,4.372,4.3721,4.3706,4.3706,4.3716,4.3727,4.3735,4.3736,4.3729,4.3723,4.3723,4.3795,4.3796,0,0,0,4.3705,4.3717,4.3711,4.372,4.3719,4.3706,4.3706,4.3726,4.3723,4.3736,4.3729,4.3723,4.3723,4.3795,4.3796,4.3842,0,0,0,4.3704,4.3719,4.3711,4.3721,4.3719,4.3723,4.3716,4.3722,4.3723,4.3729,4.3723,4.3723,4.3794,4.3795,4.3839,4.3861,0,0,0,4.3711,4.372,4.3722,4.3721,4.3722,4.3722,4.3719,4.3722,4.3719,4.3722,4.3723,4.3794,4.3795,4.3837,4.3857,4.3886,0,0,0,4.3722,4.3762,4.3723,4.3766,4.3723,4.375,4.3719,4.3738,4.3747,4.3723,4.3794,4.3796,4.3836,4.3854,4.3884,4.3915,4.3929,0,0,4.3781,4.377,4.3793,4.3759,4.3798,4.3749,4.3794,4.3787,4.3772,4.3789,4.379,4.384,4.3857,4.3886,4.4,4.4011,0,0,0,4.3818,4.3835,4.3842,4.3851,4.3847,4.3846,4.3829,4.3827,4.3841,4.3784,4.3857,4.3867,4.3883,4.3897,4.3907,4.3921,4.3802,4.3802,4.3802,4.3925,4.3905,4.3944,4.3925,4.3934,4.3918,4.3924,4.3918,4.3894,4.3912,4.3917,4.3989,4.4006,4.4013,4.4028,4.393,4.3931,4.3931,4.3931,4.4011,4.4034,4.4003,4.4029,4.4008,4.403,4.4016,4.3999,4.4017,4.3982,4.3996,4.3961,4.4026,4.4038,4.3934,4.3934,4.3933,4.3933,4.3933,4.408,4.4088,4.4085,4.4098,4.411,4.4088,4.4108,4.4087,4.4068,4.4081,4.4086,4.4085,4.4083,4.4085,4.4085,4.4085,4.4086,4.4086,4.4086,4.4154,4.4149,4.4168,4.4168,4.4172,4.4175,4.4161,4.4164,4.4163,4.4147,4.4147,4.4123,4.4035,4.4015,4.409,4.4089,4.4089,4.4088,4.4088,4.4251,4.4226,4.4256,4.426,4.426,4.4274,4.4248,4.4258,4.4258,4.4268,4.4241,4.418,4.4166,4.4158,4.4141,4.4244,4.4244,4.4244,4.4244,4.4311,4.4302,4.4328,4.4337,4.4344,4.4324,4.4359,4.4348,4.4333,4.4332,4.4314,4.4289,4.4282,4.4273,4.4263,4.4246,4.4374,4.4374,4.4374,4.437,4.4361,4.4395,4.4381,4.4379,4.4379,4.4411,4.4423,4.4401,4.4379,4.4331,4.4326,4.4286,4.4273,4.4251,4.4235,4.4205,0,0]}]]